Flag for U.S.A. Weather past 2 weeks in Birmingham, Alabama, U.S.A.

Now
53 °F

Mostly cloudy.


Feels Like: 53 °F
Forecast: 48 / 59 °F
Wind: 3 mph from North

Location: Birmingham International Airport

Current Time: Dec 21, 2014 at 7:40:52 PM

Latest Report: Dec 21, 2014 at 6:53 PM


Visibility: 10 mi

Pressure: 30.07 "Hg

Humidity: 77%

Dew point: 46 °F

Location of BirminghamLocation

Historic Weather in Birmingham — Graph

°F

Birmingham temperature yesterday

Maximum temperature yesterday: 50 °F (at 1:53 PM)
Minimum temperature yesterday: 34 °F (at 9:53 PM)
Average temperature yesterday: 42 °F

Past Weeks' High & Low Weather Summary

 TemperatureHumidityPressure
High63 °F (Dec 15, 11:53 PM)97% (Dec 21, 2:53 AM)30.41 "Hg (Dec 21, 2:53 AM)
Low28 °F (Dec 11, 12:53 AM)27% (Dec 12, 2:53 PM)29.93 "Hg (Dec 15, 11:53 PM)
Average43 °F73%30.22 "Hg
* Reported Dec 6 5:53 PM — Dec 21 5:53 PM, Birmingham, Weather by CustomWeather, © 2014

Note: Actual official high and low records may vary slightly from our data, if they occured in-between our weather recording intervals... More about our weather records

Advertising

Birmingham weather history for previous 24 hours

 ConditionsComfort  
Time TempWeatherWind HumidityBarometerVisibility
5:53 PM
Dec 21
53 °FOvercast.5 mph77%30.07 "Hg10 mi
4:53 PM54 °FOvercast.8 mph74%30.06 "Hg10 mi
3:53 PM55 °FMostly cloudy.8 mph72%30.07 "Hg10 mi
2:53 PM56 °FMostly cloudy.3 mph67%30.08 "Hg10 mi
1:53 PM56 °FPartly sunny.6 mph67%30.09 "Hg10 mi
12:53 PM54 °FPartly sunny.6 mph69%30.10 "Hg10 mi
11:53 AM53 °FPartly sunny.5 mph69%30.13 "Hg10 mi
10:53 AM50 °FBroken clouds.5 mph77%30.18 "Hg9 mi
9:53 AM49 °FPartly sunny.10 mph80%30.21 "Hg9 mi
8:53 AM46 °FPartly sunny.7 mph83%30.20 "Hg7 mi
7:53 AM45 °FFog.3 mph90%30.19 "Hg6 mi
6:53 AM43 °FLow clouds.5 mph89%30.20 "Hg7 mi
5:53 AM43 °FPassing clouds.No wind86%30.19 "Hg7 mi
4:53 AM42 °FMostly cloudy.No wind85%30.18 "Hg8 mi
3:53 AM42 °FLow clouds.3 mph85%30.20 "Hg7 mi
2:53 AM36 °FFog.No wind97%30.22 "Hg6 mi
1:53 AM35 °FClear.No wind92%30.21 "Hg8 mi
12:53 AM35 °FClear.No wind92%30.20 "Hg7 mi
11:53 PM
Dec 20
37 °FClear.No wind89%30.22 "Hg10 mi
10:53 PM36 °FClear.No wind92%30.22 "Hg8 mi
9:53 PM34 °FPassing clouds.No wind92%30.23 "Hg9 mi
8:53 PM39 °FPassing clouds.No wind86%30.22 "Hg10 mi
7:53 PM40 °FClear.No wind86%30.22 "Hg10 mi
Weather by CustomWeather, © 2014

See weather overviewHow to use our weather pages